EW7112 Weather Reports


time (UTC)temp
F
wind
direction
speed
knots
gust
knots
rain 1hr
in
rain 24hr
in
rain mn
in
humidity
%
barometer
mb
20220930160039 72 63 1.7 5.2 0.00 0.00 0.00 42 999.2
20220930154538 71 93 1.7 4.3 0.00 0.00 0.00 45 999.3
20220930153033 70 88 1.7 4.3 0.00 0.00 0.00 46 999.2
20220930151531 69 63 0.0 4.3 0.00 0.00 0.00 47 999.2
20220930150050 68 43 1.7 5.2 0.00 0.00 0.00 47 999.1
20220930144527 68 86 0.0 4.3 0.00 0.00 0.00 51 999.0
20220930143038 67 56 0.9 4.3 0.00 0.00 0.00 50 999.2
20220930141547 66 63 0.9 4.3 0.00 0.00 0.00 52 999.2
20220930140032 65 131 1.7 5.2 0.00 0.00 0.00 53 999.3
20220930134526 64 49 1.7 5.2 0.00 0.00 0.00 54 999.2
20220930133023 63 127 0.0 3.5 0.00 0.00 0.00 56 999.2
20220930131524 62 79 0.0 1.7 0.00 0.00 0.00 57 999.2
20220930130025 61 95 0.0 1.7 0.00 0.00 0.00 59 999.2
20220930124520 60 57 0.0 2.6 0.00 0.00 0.00 59 999.1
20220930123030 60 101 0.0 1.7 0.00 0.00 0.00 58 999.1
20220930121519 60 132 0.0 2.6 0.00 0.00 0.00 58 999.0
20220930120018 60 62 0.0 1.7 0.00 0.00 0.00 59 999.1
20220930114515 60 56 0.0 0.0 0.00 0.00 0.00 60 998.9
20220930113021 61 57 0.0 0.0 0.00 0.00 0.00 58 998.9
20220930111511 61 71 0.0 0.0 0.00 0.00 0.00 57 998.9
20220930110019 62 70 0.0 0.0 0.00 0.00 0.00 56 998.9
20220930104511 62 73 0.0 0.0 0.00 0.00 0.00 55 998.8
20220930103005 62 72 0.0 0.0 0.00 0.00 0.00 55 998.8
20220930101504 62 120 0.0 0.0 0.00 0.00 0.00 54 998.7
20220930100003 63 124 0.0 0.0 0.00 0.00 0.00 54 998.6
20220930094503 63 124 0.0 1.7 0.00 0.00 0.00 54 998.5
20220930093003 63 75 0.0 3.5 0.00 0.00 0.00 54 998.4
20220930091501 63 51 0.9 3.5 0.00 0.00 0.00 56 998.4
20220930090105 63 143 0.0 0.0 0.00 0.00 0.00 58 998.4
20220930084606 63 144 0.0 0.0 0.00 0.00 0.00 57 998.5
20220930083105 64 63 0.0 0.9 0.00 0.00 0.00 56 998.6
20220930081558 64 98 0.0 1.7 0.00 0.00 0.00 57 998.6
20220930080057 63 127 0.0 2.6 0.00 0.00 0.00 58 998.6
20220930074602 63 109 0.0 0.0 0.00 0.00 0.00 59 998.7
20220930073055 63 134 0.0 0.9 0.00 0.00 0.00 59 998.7
20220930071554 64 135 0.0 0.0 0.00 0.00 0.00 58 998.6
20220930070058 64 135 0.0 0.0 0.00 0.00 0.00 58 998.6
20220930064557 63 135 0.0 0.0 0.00 0.00 0.00 59 998.6
20220930063049 64 135 0.0 0.0 0.00 0.00 0.00 62 998.6
20220930061558 64 135 0.0 0.0 0.00 0.00 0.00 63 998.6
20220930060044 65 136 0.0 0.0 0.00 0.00 0.00 62 998.5
20220930054558 66 135 0.0 0.0 0.00 0.00 0.00 63 998.5
20220930053042 67 136 0.0 0.0 0.00 0.00 0.00 59 998.6
20220930051539 68 139 0.0 1.7 0.00 0.00 0.00 57 998.6
20220930050032 69 79 0.0 0.9 0.00 0.00 0.00 56 998.6
20220930044535 69 127 0.0 2.6 0.00 0.00 0.00 56 998.5
20220930043030 69 152 0.0 0.9 0.00 0.00 0.00 56 998.5
20220930041530 70 67 0.0 1.7 0.00 0.00 0.00 55 998.4
20220930040030 70 100 0.0 1.7 0.00 0.00 0.00 55 998.3
20220930034527 70 82 0.0 1.7 0.00 0.00 0.00 54 998.3
20220930033050 71 91 0.0 0.9 0.00 0.00 0.00 53 998.4
20220930031526 72 84 0.0 3.5 0.00 0.00 0.00 51 998.3
20220930030038 72 224 0.0 4.3 0.00 0.00 0.00 50 998.3
20220930024522 72 77 0.0 4.3 0.00 0.00 0.00 49 998.3
20220930023019 72 108 0.0 2.6 0.00 0.00 0.00 49 998.1
20220930021517 72 144 0.0 0.9 0.00 0.00 0.00 48 997.9
20220930020031 73 79 0.0 0.9 0.00 0.00 0.00 48 997.9
20220930014524 73 71 0.0 2.6 0.00 0.00 0.00 47 997.9
20220930013016 73 50 0.9 2.6 0.00 0.00 0.00 46 997.8
20220930011516 74 132 0.0 0.9 0.00 0.00 0.00 46 997.7
20220930010015 75 76 0.0 4.3 0.00 0.00 0.00 44 997.6
20220930004518 75 46 0.0 3.5 0.00 0.00 0.00 44 997.6
20220930003014 76 72 0.0 3.5 0.00 0.00 0.00 42 997.5
20220930001518 76 82 0.9 3.5 0.00 0.00 0.00 42 997.5
20220930000013 77 78 0.0 7.0 0.00 0.00 0.00 41 997.5
20220929234532 78 72 0.9 5.2 0.00 0.00 0.00 39 997.5
20220929233012 79 148 0.0 6.1 0.00 0.00 0.00 38 997.4
20220929231512 79 49 0.0 6.1 0.00 0.00 0.00 38 997.5
20220929230010 80 89 0.0 5.2 0.00 0.00 0.00 38 997.5
20220929224509 80 120 1.7 5.2 0.00 0.00 0.00 37 997.6
20220929223008 81 234 0.0 5.2 0.00 0.00 0.00 37 997.6
20220929221518 82 132 0.0 3.5 0.00 0.00 0.00 36 997.8
20220929220005 82 44 0.9 6.1 0.00 0.00 0.00 35 997.9
20220929214527 82 76 0.0 6.1 0.00 0.00 0.00 36 998.1
20220929213002 82 242 0.0 3.5 0.00 0.00 0.00 36 998.2
20220929211624 82 98 0.0 4.3 0.00 0.00 0.00 36 998.3
20220929210100 82 78 0.9 5.2 0.00 0.00 0.00 34 998.3
20220929204557 82 63 0.0 2.6 0.00 0.00 0.00 36 998.5
20220929203101 82 77 0.9 6.1 0.00 0.00 0.00 35 998.7
20220929201607 81 84 0.9 5.2 0.00 0.00 0.00 37 998.9
20220929200107 80 70 0.9 9.6 0.00 0.00 0.00 38 999.3
20220929194547 80 270 0.0 5.2 0.00 0.00 0.00 37 999.5
20220929193104 79 58 0.0 4.3 0.00 0.00 0.00 37 999.8
20220929191556 79 69 0.9 3.5 0.00 0.00 0.00 38 1000.3
20220929190036 78 62 0.9 5.2 0.00 0.00 0.00 37 1000.5
20220929184534 77 113 0.9 4.3 0.00 0.00 0.00 39 1000.8
20220929183048 77 103 0.9 5.2 0.00 0.00 0.00 39 1000.9
20220929181532 77 345 0.9 5.2 0.00 0.00 0.00 39 1001.3
20220929180026 77 20 0.9 6.1 0.00 0.00 0.00 39 1001.6
20220929174522 76 41 0.9 6.1 0.00 0.00 0.00 39 1001.7
20220929173021 75 123 0.9 6.1 0.00 0.00 0.00 39 1001.9
20220929171542 75 83 2.6 10.4 0.00 0.00 0.00 39 1002.1
20220929170022 74 237 0.9 9.6 0.00 0.00 0.00 40 1002.3
20220929164513 73 238 1.7 7.8 0.00 0.00 0.00 40 1002.6
20220929163010 73 151 1.7 5.2 0.00 0.00 0.00 41 1002.7
20220929161512 72 37 1.7 6.1 0.00 0.00 0.00 41 1003.0